Location: Newark
(48.1500°N, 2.9667°W)
Time: 11:09:19
(UTC+00:00)

A-11 Canister half - Pass Details

Date: 23 January 2020
Orbit: 1524 x 1684 km, 47.3° (Epoch: 25 February)

Event Time Altitude Azimuth Distance (km) Brightness Sun altitude
Rises 01:34:35 0° 290° (WNW) 4,801 - -58.0°
Reaches altitude 10° 01:38:11 10° 280° (W) 3,837 - -57.7°
Maximum altitude 01:46:01 28° 226° (SW) 2,704 - -56.9°
Drops below altitude 10° 01:54:03 10° 172° (S) 3,915 - -56.1°
Sets 01:57:48 0° 162° (SSE) 4,913 - -55.7°
